Showing default

LYNK TOWER 5, 59121

Orbit data source: Space-Track

LYNK TOWER 5, 59121 is a payload satellite owned by Lynk (US) in SSO that was launched on Mon, 04 Mar 2024 UTC via an FALCON 9 launch vehicle from the Air Force Western Test Range (AFWTR). Payload-class satellites include a variety of spacecraft equipped with specific instruments for various scientific and technological missions. These include communications satellites like Starlink; space stations such as the ISS; scientific satellites like the Hubble; Earth observation satellites from companies like Planet Labs, Umbra, and HawkEye 360; GPS; miniature CubeSats for education and research; and military/defense satellites.

Loading next visibility...
Identifier
59121, 2024-043Z
Orbit
SSO
Country
Flag of USUS
Related business
Manufacturer
Lynk
Mission
Operational Commercial Communications
Bus & Motor
LYNK SHANNON, Unknown motor
Mass
~85 kg wet, ~85 kg dry
Launch date (UTC)
2024-03-04 (2 years ago)
Launch vehicle
FALCON 9
Launch site
Air Force Western Test Range (AFWTR)
Object type
Payload
Rocket body
Debris
Shape & HBR
Box, 0.5 m
Radar Cross Section
0.650 m², Medium (>0.1 m² and < 1m²)

Expand to show TLE details & history
Last TLE update: 5 hours ago

TLE from 5 hours ago
0 LYNK TOWER 5
1 59121U 24043Z   25298.32542735  .00008768  00000-0  33215-3 0  9994
2 59121  97.5353  67.4859 0011754   3.3346 356.7969 15.27085830 91158
Epoch: 2025-10-25T07:48Z
TLE epoch observation values (Epoch: 2025-10-25T07:48:36.923Z)
Latitude
0.00002°
Longitude
-83.62554°
Altitude
479.57 km
Speed
7.63 km/s
True Right ascension
04h 29m 56s
True Declination
0° 00' 00"
Sunlit
Object was in full shadow at epoch
Visualization orbit readout
Latitude
Unknown
Longitude
Unknown
Altitude
Unknown
Speed
Unknown
Apparent Right ascension
Unknown
Apparent Declination
Unknown
Sunlit
N/A
Visualization observer readout
Local Sidereal Time
07:39:45
Azimuth
Unknown
Elevation
Unknown
Doppler factor
Unknown
Orbital elements
Apogee altitude
489.554 km
Perigee altitude
473.428 km
Semi-major axis
6,859.628 km
Eccentricity
0.00118
Inclination
97.5353°
RAAN
67.4859°
Arg. of periapsis
3.3346°
True anomaly
356.78936°
Mean anomaly
356.7969°
Eccentric anomaly
356.79313°
Mean motion
3.82025 °/min
Orbital period
94.23 mins
BSTAR
0.00033215
Loading maneuver chart data...
Computing Atmospheric mass density...
Loading historical data...
Loading historical data...
Loading historical data...
Loading historical data...
Loading historical data...
Loading historical data...
Loading historical data...

Documentation

Showing up to 5 results
|